Location: Noordwijk
(52.2400°N, 4.4500°E)
Time: 10:01:03
(UTC+00:00)

NOAA 19 - Visible Passes

Search period start: 27 November 2022 00:00
Search period end: 07 December 2022 00:00
Orbit: 839 x 861 km, 99.1° (Epoch: 26 November)

Date Brightness Start Highest point End Pass type
(mag) Time Alt. Az. Time Alt. Az. Time Alt. Az.
27 Nov 6.9 16:41:38 11° NE 16:42:30 11° NE 16:44:10 10° NNE visible
27 Nov 6.0 18:23:38 35° NNE 18:23:38 35° NNE 18:27:06 10° N visible
27 Nov 7.3 20:05:38 21° NW 20:05:38 21° NW 20:07:42 10° NNW visible
28 Nov 8.2 06:34:50 10° ENE 06:36:31 11° E 06:38:11 10° E visible
28 Nov 6.1 18:11:37 32° NNE 18:11:37 32° NNE 18:15:03 10° N visible
28 Nov 7.1 19:53:37 23° NW 19:53:37 23° NW 19:55:52 10° NNW visible
29 Nov 6.2 17:59:36 28° NNE 17:59:36 28° NNE 18:02:59 10° N visible
29 Nov 7.0 19:41:35 26° NW 19:41:35 26° NW 19:44:00 10° NNW visible
30 Nov 6.3 17:47:34 25° NE 17:47:34 25° NE 17:50:53 10° N visible
30 Nov 6.8 19:29:34 28° NNW 19:29:34 28° NNW 19:32:07 10° NNW visible
01 Dec 6.4 17:35:32 22° NE 17:35:32 22° NE 17:38:45 10° N visible
01 Dec 6.6 19:17:32 30° NNW 19:17:32 30° NNW 19:20:11 10° NNW visible
02 Dec 6.6 17:23:30 19° NE 17:23:30 19° NE 17:26:34 10° N visible
02 Dec 6.5 19:05:30 31° NNW 19:05:30 31° NNW 19:08:14 10° NNW visible
02 Dec 8.1 20:47:30 11° NW 20:47:30 11° NW 20:47:46 10° NW visible
03 Dec 6.7 17:11:28 17° NE 17:11:28 17° NE 17:14:20 10° NNE visible
03 Dec 6.4 18:53:28 31° N 18:53:28 31° N 18:56:16 10° NNW visible
03 Dec 7.9 20:35:27 13° NW 20:35:27 13° NW 20:36:11 10° NW visible
04 Dec 6.8 16:59:25 14° NE 16:59:25 14° NE 17:02:01 10° NNE visible
04 Dec 6.3 18:41:25 31° N 18:41:25 31° N 18:44:16 10° N visible
04 Dec 7.8 20:23:24 15° NW 20:23:24 15° NW 20:24:31 10° NW visible
05 Dec 7.9 06:50:40 10° NE 06:53:51 15° E 06:57:03 10° ESE visible
05 Dec 6.9 16:47:22 12° NE 16:47:32 12° NE 16:49:32 10° NNE visible
05 Dec 6.3 18:29:22 30° N 18:29:22 30° N 18:32:15 10° N visible
05 Dec 7.6 20:11:21 17° NW 20:11:21 17° NW 20:12:45 10° NNW visible
06 Dec 8.1 06:39:30 10° ENE 06:41:42 12° E 06:43:55 10° ESE visible
06 Dec 7.0 16:35:18 10° NE 16:35:49 10° NE 16:36:20 10° NE visible
06 Dec 6.3 18:17:18 28° NNE 18:17:18 28° NNE 18:20:12 10° N visible
06 Dec 7.4 19:59:18 19° NW 19:59:18 19° NW 20:00:57 10° NNW visible
